Weather History for LIVP - August, 2013

Change the Weather History Date:

Friday, August 23, 2013

  Actual Average (LIVR) Record (LIVR)
Temperature  
Mean Temperature 52 °F -  
Max Temperature 59 °F 51 °F - (-1)
Min Temperature 44 °F 41 °F - (-1)
Degree Days  
Heating Degree Days 14    
Growing Degree Days 2 (Base 50)    
Moisture  
Dew Point 44 °F    
Average Humidity 83    
Maximum Humidity 100    
Minimum Humidity 65    
Precipitation  
Precipitation 0.55 in 0.12 in - ()
Sea Level Pressure  
Sea Level Pressure 30.20 in    
Wind  
Wind Speed 7 mph ()    
Max Wind Speed 16 mph    
Max Gust Speed -    
Visibility 3.4 miles    
Events Fog , Rain , Hail , Thunderstorm    
Averages and records for this station are not official NWS values.
T = Trace of Precipitation, MM = Missing Value Source: Averaged Metar Reports

Daily Weather History Graph

Daily Weather History Graph

Search for Another Location

Airport or City:

Trip Planner

Search our weather history database for the weather conditions in past years. The results will help you decide how hot, cold, wet, or windy it might be!

Date:

Astronomy

Aug. 23, 2013 Rise Set
Actual Time 6:25 AM CEST 8:10 PM CEST
Civil Twilight 5:53 AM CEST 8:42 PM CEST
Nautical Twilight 5:14 AM CEST 9:21 PM CEST
Astronomical Twilight 4:31 AM CEST 10:03 PM CEST
Moon 9:06 PM CEST (8/23) 9:14 AM CEST (8/23)
Length of Visible Light 14h 49m
Length of Day
13h 45m
Waning Gibbous, 93% of the Moon is Illuminated
Aug 23
Waning Gibbous
Aug 28
Last Quarter
Sep 5
New
Sep 12
First Quarter
Sep 19
Full

Hourly Weather History & Observations

Time (CEST) Temp. Windchill Dew Point Humidity Pressure Visibility Wind Dir Wind Speed Gust Speed Precip Events Conditions
12:55 AM 48.2 °F - 48.2 °F 100% 30.24 in 0.2 mi SSW 13.8 mph - N/A Fog Fog
1:55 AM 46.4 °F 41.1 °F 46.4 °F 100% 30.24 in 0.2 mi SSW 11.5 mph - N/A Fog Fog
2:00 AM 47 °F - 47 °F 100%  in 0 mi SSW 11.5 mph - - Fog Heavy Fog
2:55 AM 46.4 °F 40.7 °F 46.4 °F 100% 30.24 in 0.2 mi SSW 12.7 mph - N/A Fog Fog
3:55 AM 46.4 °F 39.8 °F 46.4 °F 100% 30.24 in 0.2 mi SSW 16.1 mph - N/A Fog Fog
4:55 AM 46.4 °F 40.1 °F 44.6 °F 93% 30.21 in 0.2 mi SSW 15.0 mph - N/A Fog Fog
5:55 AM 46.4 °F 40.4 °F 44.6 °F 93% 30.21 in 0.2 mi SSW 13.8 mph - N/A Fog Fog
6:55 AM 46.4 °F 45.2 °F 46.4 °F 100% 30.21 in 0.1 mi SW 3.5 mph - N/A Fog Fog
7:55 AM 46.4 °F - 46.4 °F 100% 30.21 in 0.6 mi Calm Calm - N/A Fog Fog
8:00 AM 47 °F - 46 °F 96%  in 1 mi Calm Calm - - Fog Heavy Fog
8:55 AM 48.2 °F - 46.4 °F 93% 30.21 in 5.0 mi Calm Calm - N/A   Mostly Cloudy
9:55 AM 50.0 °F - 46.4 °F 87% 30.21 in 5.0 mi South 3.5 mph - N/A   Mostly Cloudy
10:55 AM 51.8 °F - 46.4 °F 82% 30.21 in 0.1 mi Calm Calm - N/A Fog Fog
11:00 AM 52 °F - 47 °F 76%  in 0 mi Calm Calm - - Fog Heavy Fog
11:55 AM 51.8 °F - 46.4 °F 82% 30.21 in 0.6 mi Calm Calm - N/A Fog Fog
12:55 PM 53.6 °F - 46.4 °F 77% 30.21 in 6.2 mi SW 3.5 mph - N/A   Scattered Clouds
1:55 PM 53.6 °F - 46.4 °F 77% 30.21 in 6.2 mi WSW 4.6 mph - N/A   Mostly Cloudy
2:00 PM 54 °F - 46 °F 65%  in 6 mi WSW 4.6 mph - -   Partly Cloudy
2:55 PM 57.2 °F - 46.4 °F 67% 30.18 in 6.2 mi SW 9.2 mph - N/A   Scattered Clouds
3:55 PM 57.2 °F - 46.4 °F 67% 30.18 in 6.2 mi SW 11.5 mph - N/A   Scattered Clouds
4:17 PM 55.4 °F - 46.4 °F 72% 30.18 in 6.2 mi SSW 4.6 mph - N/A Thunderstorm Thunderstorm
4:55 PM 50.0 °F - 42.8 °F 76% 30.18 in 6.2 mi Variable 4.6 mph - N/A Rain , Hail , Thunderstorm Thunderstorms and Rain
5:00 PM 51 °F - 44 °F 68%  in 4 mi 4.6 mph - - Hail , Thunderstorm Thunderstorms with Hail
5:55 PM 46.4 °F 43.5 °F 39.2 °F 76% 30.18 in 1.9 mi Variable 5.8 mph - N/A Rain , Thunderstorm Light Thunderstorms and Rain
6:55 PM 46.4 °F 43.5 °F 37.4 °F 71% 30.18 in 0.1 mi NW 5.8 mph - N/A Fog , Rain Fog
7:55 PM 46.4 °F 42.9 °F 39.2 °F 76% 30.18 in 6.2 mi NW 6.9 mph - N/A   Mostly Cloudy
8:00 PM 46 °F - 39 °F 67%  in 12 mi NW 6.9 mph - - Fog Light Fog
8:55 PM 46.4 °F 42.9 °F 42.8 °F 87% 30.18 in 6.2 mi NW 6.9 mph - N/A   Mostly Cloudy
9:55 PM 44.6 °F 39.7 °F 44.6 °F 100% 30.18 in 0.2 mi North 9.2 mph - N/A Fog Fog
10:55 PM 46.4 °F 43.5 °F 41.0 °F 81% 30.18 in 6.2 mi West 5.8 mph - N/A   Mostly Cloudy
11:00 PM 46 °F - 41 °F 76%  in 9 mi West 5.8 mph - - Fog Light Fog
11:55 PM 46.4 °F 45.2 °F 35.6 °F 66% 30.18 in 6.2 mi West 3.5 mph - N/A   Scattered Clouds